Regional Weather Roundup
Issued by NWS

Home | Current Version | Previous Version | Graphics & Text | Print | Product List | Glossary On
Versions: 1 2 3 4 5 6 7 8 9 10 11 12 13 14 15 16 17 18 19 20 21 22 23 24 25 26 27 28 29 30 31 32 33 34 35 36 37 38 39 40 41 42 43 44 45 46 47 48 49 50
812
ASUS45 KCYS 251610
RWRWY

WYOMING REGIONAL WEATHER ROUNDUP
NATIONAL WEATHER SERVICE CHEYENNE WY
1000 AM MDT THU MAY 25 2017

NOTE:  "FAIR" INDICATES FEW OR NO CLOUDS BELOW 12,000 FEET
WITH NO SIGNIFICANT WEATHER AND/OR OBSTRUCTIONS TO VISIBILITY.

WYZ001-251700-
YELLOWSTONE NATIONAL PARK

CITY           SKY/WX    TMP DP  RH WIND       PRES   REMARKS
LK YELLOWSTONE   N/A     36  19  50 VRB3      29.80R
W YELLOWSTONE  NOT AVBL

$$
WYZ002>013-054>058-071-098>099-251700-
NORTHERN WYOMING

CITY           SKY/WX    TMP DP  RH WIND       PRES   REMARKS
JACKSON        SUNNY     48  16  27 SW12G23   29.74R
CODY           FAIR      53  21  28 N16G23    29.67R
GREYBULL       FAIR      59  23  25 NW24G38   29.61R
WORLAND        FAIR      58  23  26 N12       29.62S
SHERIDAN       FAIR      57  32  38 NW23G31   29.59S
BUFFALO        FAIR      56  28  34 N17G25    29.61R
GILLETTE       CLOUDY    52  29  41 NW13      29.59R
HULETT         PTSUNNY   54  27  35 W8        29.58S
NEWCASTLE      FAIR      55  21  26 NW13G20   29.58S

$$
WYZ014>020-022>026-101>103-251700-
CENTRAL WYOMING

CITY           SKY/WX    TMP DP  RH WIND       PRES   REMARKS
BIG PINEY      FAIR      47  22  37 VRB5      29.75R
PINEDALE       FAIR      46  21  36 NW9G16    29.75R
DUBOIS         NOT AVBL
LANDER         FAIR      50  34  54 E6        29.65R
RIVERTON       FAIR      55  25  31 CALM      29.64S
CASPER         PTSUNNY   52  39  61 N12       29.63R
DOUGLAS        CLOUDY    52  46  80 E8        29.60F

$$
WYZ021-027>030-104>119-251700-
SOUTHERN WYOMING

CITY           SKY/WX    TMP DP  RH WIND       PRES   REMARKS
EVANSTON       FAIR      47  36  65 W15G23    29.77R
KEMMERER         N/A     45  32  61 W13       29.77R
ROCK SPRINGS   FAIR      50  37  61 W17G26    29.74F
RAWLINS        CLOUDY    47  34  60 SW17G24   29.74R
SARATOGA       CLOUDY    46  34  61 W14       29.77
LARAMIE        PTSUNNY   49  38  65 N16G23    29.71R
CHEYENNE       CLOUDY    59  43  55 N14G26    29.66R
TORRINGTON     FAIR      64  41  42 CALM      29.57R
PINE BLUFFS    FAIR      63  45  51 N7        29.59F

$$




USA.gov is the U.S. government's official web portal to all federal, state and local government web resources and services.